TimeEDT,TemperatureF,Dew PointF,Humidity,Sea Level PressureIn,VisibilityMPH,Wind Direction,Wind SpeedMPH,Gust SpeedMPH,PrecipitationIn,Events,Conditions,WindDirDegrees,DateUTC
12:56 AM,73.0,66.0,79,30.04,10.0,South,4.6,-,N/A,,Scattered Clouds,190,2013-05-11 04:56:00
1:56 AM,73.0,66.9,81,30.01,10.0,South,4.6,-,N/A,,Partly Cloudy,190,2013-05-11 05:56:00
2:56 AM,72.0,66.0,81,30.01,10.0,SSW,6.9,-,N/A,,Clear,210,2013-05-11 06:56:00
3:56 AM,72.0,66.0,81,30.00,10.0,Variable,5.8,-,N/A,,Clear,0,2013-05-11 07:56:00
4:56 AM,70.0,66.9,90,29.99,10.0,SW,4.6,-,N/A,,Clear,220,2013-05-11 08:56:00
5:56 AM,70.0,66.0,87,29.99,10.0,SW,4.6,-,N/A,,Clear,220,2013-05-11 09:56:00
6:56 AM,69.1,64.9,87,29.98,10.0,SSW,3.5,-,N/A,,Clear,200,2013-05-11 10:56:00
7:56 AM,70.0,63.0,78,29.97,10.0,SSW,3.5,-,N/A,,Clear,200,2013-05-11 11:56:00
8:56 AM,73.9,62.1,66,29.98,10.0,WSW,6.9,-,N/A,,Clear,250,2013-05-11 12:56:00
9:56 AM,75.0,60.1,60,30.00,10.0,WSW,9.2,-,N/A,,Clear,250,2013-05-11 13:56:00
10:56 AM,75.9,61.0,60,29.99,10.0,SW,8.1,-,N/A,,Clear,230,2013-05-11 14:56:00
11:56 AM,79.0,60.1,52,29.99,10.0,West,12.7,-,N/A,,Clear,260,2013-05-11 15:56:00
12:56 PM,81.0,59.0,47,29.97,10.0,NW,8.1,-,N/A,,Clear,320,2013-05-11 16:56:00
1:56 PM,84.0,60.1,44,29.95,10.0,West,15.0,19.6,N/A,,Clear,260,2013-05-11 17:56:00
2:56 PM,84.0,60.1,44,29.93,10.0,WNW,13.8,18.4,N/A,,Clear,300,2013-05-11 18:56:00
3:56 PM,84.9,61.0,44,29.93,10.0,West,10.4,-,N/A,,Mostly Cloudy,260,2013-05-11 19:56:00
4:56 PM,82.9,61.0,47,29.91,10.0,WSW,13.8,-,N/A,,Clear,250,2013-05-11 20:56:00
5:56 PM,81.0,66.0,60,29.90,10.0,Variable,5.8,-,N/A,,Partly Cloudy,0,2013-05-11 21:56:00
6:56 PM,78.1,66.9,68,29.90,10.0,SSW,5.8,-,N/A,,Clear,210,2013-05-11 22:56:00
7:56 PM,75.9,66.9,74,29.91,10.0,South,5.8,-,N/A,,Clear,190,2013-05-11 23:56:00
8:56 PM,75.0,68.0,79,29.92,10.0,South,5.8,-,N/A,,Clear,190,2013-05-12 00:56:00
9:56 PM,75.0,69.1,82,29.92,10.0,SSW,5.8,-,N/A,,Mostly Cloudy,200,2013-05-12 01:56:00
10:56 PM,75.0,68.0,79,29.91,10.0,SW,5.8,-,N/A,,Overcast,230,2013-05-12 02:56:00
11:56 PM,72.0,66.9,84,29.91,10.0,WSW,4.6,-,N/A,,Clear,250,2013-05-12 03:56:00